Location: Chemnitz
(49.5500°N, 11.5830°E)
Time: 03:09:19
(UTC+01:00)

ISS - Pass Details

Date: 13 November 2017
Orbit: 402 x 407 km, 51.6° (Epoch: 22 November)

Event Time Altitude Azimuth Distance (km) Brightness Sun altitude
Exits shadow 06:35:12 10° 276° (W) 1,459 -1.7 -7.8°
Reaches altitude 10° 06:35:13 10° 276° (W) 1,457 -1.7 -7.8°
Maximum altitude 06:38:05 29° 214° (SW) 772 -2.5 -7.3°
Drops below altitude 10° 06:40:57 10° 152° (SSE) 1,450 -0.3 -6.9°
Sets 06:43:10 0° 141° (SE) 2,306 1.2 -6.6°
